Trenton, NJ

11:43 AM EST on February 19, 2017 (GMT -0500)
Trenton Mercer

Weather History for KTTN - April, 2013

Change the Weather History Date:

Saturday, April 27, 2013

  Actual Average Record
Temperature  
Mean Temperature 55 °F 55 °F  
Max Temperature 68 °F 66 °F 93 °F (1915)
Min Temperature 41 °F 45 °F 34 °F (1967)
Degree Days  
Heating Degree Days 10 10  
Month to date heating degree days 360 390  
Since 1 July heating degree days 4746 4936  
Cooling Degree Days 0 1  
Month to date cooling degree days 14 1  
Year to date cooling degree days 14 1  
Growing Degree Days 4 (Base 50)    
Moisture  
Dew Point 32 °F    
Average Humidity 44    
Maximum Humidity 62    
Minimum Humidity 26    
Precipitation  
Precipitation 0.00 in 0.09 in 2.30 in (1904)
Month to date precipitation 2.01 3.27  
Year to date precipitation 9.22 12.88  
Sea Level Pressure  
Sea Level Pressure 30.35 in    
Wind  
Wind Speed 4 mph (West)    
Max Wind Speed 15 mph    
Max Gust Speed 20 mph    
Visibility 10 miles    
Events      
T = Trace of Precipitation, MM = Missing Value Source: NWS Daily Summary

Daily Weather History Graph

Daily Weather History Graph

Search for Another Location

Airport or City:

Trip Planner

Search our weather history database for the weather conditions in past years. The results will help you decide how hot, cold, wet, or windy it might be!

Date:

Astronomy

Apr. 27, 2013 Rise Set
Actual Time 6:03 AM EDT 7:50 PM EDT
Civil Twilight 5:34 AM EDT 8:19 PM EDT
Nautical Twilight 4:59 AM EDT 8:55 PM EDT
Astronomical Twilight 4:21 AM EDT 9:33 PM EDT
Moon 10:17 PM EDT (4/27) 7:19 AM EDT (4/27)
Length of Visible Light 14h 45m
Length of Day
13h 47m
Waning Gibbous, 95% of the Moon is Illuminated
Apr 27
Waning Gibbous
May 2
Last Quarter
May 9
New
May 18
First Quarter
May 25
Full

Hourly Weather History & Observations

Time (EDT) Temp. Windchill Dew Point Humidity Pressure Visibility Wind Dir Wind Speed Gust Speed Precip Events Conditions
12:53 AM 48.0 °F - 28.9 °F 48% 30.39 in 10.0 mi North 5.8 mph - N/A   Clear
1:53 AM 46.0 °F 44.8 °F 30.0 °F 54% 30.39 in 10.0 mi North 3.5 mph - N/A   Clear
2:53 AM 48.0 °F - 30.0 °F 50% 30.39 in 10.0 mi NNE 5.8 mph - N/A   Clear
3:53 AM 46.9 °F - 30.0 °F 52% 30.39 in 10.0 mi NNE 4.6 mph - N/A   Clear
4:53 AM 46.0 °F 44.8 °F 28.9 °F 51% 30.39 in 10.0 mi NNE 3.5 mph - N/A   Clear
5:53 AM 43.0 °F 41.3 °F 30.0 °F 60% 30.39 in 10.0 mi North 3.5 mph - N/A   Clear
6:53 AM 44.1 °F - 30.9 °F 60% 30.40 in 10.0 mi Calm Calm - N/A   Clear
7:53 AM 48.9 °F - 30.9 °F 50% 30.42 in 10.0 mi North 4.6 mph - N/A   Clear
8:53 AM 54.0 °F - 33.1 °F 45% 30.42 in 10.0 mi Variable 4.6 mph - N/A   Clear
9:53 AM 55.9 °F - 30.9 °F 39% 30.42 in 10.0 mi Calm Calm - N/A   Clear
10:53 AM 60.1 °F - 30.0 °F 32% 30.41 in 10.0 mi Calm Calm - N/A   Clear
11:53 AM 62.1 °F - 32.0 °F 32% 30.39 in 10.0 mi Variable 3.5 mph - N/A   Clear
12:53 PM 63.0 °F - 30.0 °F 29% 30.37 in 10.0 mi SE 4.6 mph - N/A   Clear
1:53 PM 66.0 °F - 32.0 °F 28% 30.34 in 10.0 mi NNW 9.2 mph - N/A   Clear
2:53 PM 64.9 °F - 28.9 °F 26% 30.32 in 10.0 mi Calm Calm - N/A   Clear
3:53 PM 66.0 °F - 33.1 °F 29% 30.30 in 10.0 mi South 3.5 mph - N/A   Clear
4:53 PM 66.9 °F - 33.1 °F 28% 30.28 in 10.0 mi WSW 3.5 mph - N/A   Clear
5:53 PM 66.9 °F - 33.1 °F 28% 30.27 in 10.0 mi Variable 3.5 mph - N/A   Clear
6:53 PM 64.9 °F - 35.1 °F 33% 30.26 in 10.0 mi SSW 3.5 mph - N/A   Clear
7:53 PM 62.1 °F - 34.0 °F 35% 30.27 in 10.0 mi South 12.7 mph - N/A   Clear
8:53 PM 57.0 °F - 33.1 °F 40% 30.28 in 10.0 mi South 8.1 mph - N/A   Clear
9:53 PM 54.0 °F - 33.1 °F 45% 30.29 in 10.0 mi SSW 5.8 mph - N/A   Clear
10:53 PM 52.0 °F - 33.1 °F 49% 30.29 in 10.0 mi SSW 6.9 mph - N/A   Clear
11:53 PM 50.0 °F - 34.0 °F 54% 30.29 in 10.0 mi SSW 4.6 mph - N/A   Clear